Wind_Speed
16 16 17 16 14 12 11 10 9 7 6 3 2 2 2 3 4 7 10 11 12 13 13 12 11 10 9 7 5 5 5 7 9 11 13 15 18 20 23 25 27 28 28 29 29 28 26 23 21 18 17 17 18 19 19 19 20 21 22 21 21 21 20 20 20 21 20 20 20
15 15 16 15 13 11 9 7 5 4 2 1 1 1 1 3 4 7 9 10 10 10 10 10 9 9 8 8 8 9 10 12 13 16 18 20 23 25 26 26 25 24 23 23 21 20 18 17 16 16 17 17 17 18 18 19 20 22 22 21 21 21 20 20 20 20 20 20 20
15 15 15 13 10 8 7 6 4 3 2 2 2 2 3 4 5 7 8 10 9 9 9 9 9 9 8 9 10 11 12 14 16 18 20 20 20 19 18 17 16 16 15 14 14 14 15 15 16 16 17 17 17 18 19 20 21 21 21 20 20 20 19 19 19 19 19 19 19
14 14 13 11 9 8 8 8 6 5 5 4 4 4 4 5 6 7 8 9 9 9 9 8 7 7 7 8 9 11 12 13 14 14 13 12 10 10 9 9 10 10 11 12 13 14 15 16 16 17 17 17 18 19 20 21 21 20 20 19 19 19 18 18 18 18 18 18 18
14 13 11 10 9 9 8 8 7 6 6 6 5 5 5 6 7 7 8 9 9 8 7 5 4 5 6 8 9 9 9 9 9 8 7 6 6 6 7 7 8 9 11 12 14 15 16 16 16 17 18 19 20 21 20 19 19 19 19 19 18 18 18 17 17 17 17 17 18
13 12 10 9 9 8 8 7 7 7 7 7 6 6 6 6 7 7 8 8 7 5 4 3 3 4 5 6 5 5 6 5 5 4 4 4 5 6 7 8 9 11 12 13 14 15 16 16 18 19 20 20 19 18 18 18 18 18 18 18 18 17 17 17 17 17 17 17 17
12 11 10 9 9 8 8 8 7 7 7 6 6 6 6 6 6 5 5 5 4 3 3 3 3 4 5 4 4 4 3 2 2 3 4 5 7 8 9 10 10 11 12 13 14 15 17 17 18 18 18 17 17 17 18 18 18 18 18 18 18 17 17 17 17 16 16 16 17
11 10 10 10 9 9 8 8 8 7 7 6 6 5 5 5 4 4 3 3 3 3 3 4 4 5 6 5 4 3 3 3 4 5 7 8 9 9 9 10 10 11 12 13 15 15 16 16 16 16 16 17 17 18 18 18 18 18 18 18 18 18 18 17 17 17 17 17 17
11 11 11 11 10 9 9 9 8 8 7 7 6 6 5 5 4 3 3 2 3 4 4 5 5 5 5 5 4 4 5 6 7 8 8 9 9 9 9 10 11 12 12 13 14 14 14 15 15 16 17 17 18 18 18 18 18 18 19 19 19 19 19 18 18 18 18 18 19
12 12 12 12 11 10 10 9 9 8 8 7 7 6 6 5 4 4 3 3 4 5 5 5 5 5 5 5 5 6 6 7 8 8 8 8 8 8 9 10 11 12 12 13 14 14 15 15 16 17 17 18 18 18 19 19 19 19 20 20 20 20 20 20 20 20 20 20 21
13 13 13 12 11 11 11 10 10 10 9 8 8 7 6 5 5 4 4 4 5 4 4 4 4 4 4 4 5 5 6 6 6 6 6 6 7 8 9 10 11 13 14 15 15 16 16 16 17 17 18 18 18 19 19 19 20 20 20 21 21 21 21 22 22 21 21 21 22
14 14 13 13 12 12 12 12 12 11 10 9 8 7 6 5 4 4 4 4 4 4 4 4 3 3 3 3 4 4 4 4 5 5 6 7 8 9 10 12 13 14 15 16 16 16 16 16 17 18 18 19 19 20 20 20 20 21 21 22 22 22 22 22 22 22 22 22 22
14 14 14 14 14 14 14 13 12 12 11 10 9 7 6 5 5 4 4 3 3 4 4 4 4 4 4 3 3 3 4 5 6 7 8 9 10 11 12 13 14 15 15 16 16 16 16 17 18 18 19 20 20 20 20 20 21 21 21 22 22 22 22 22 22 22 22 22 22
14 14 15 15 15 15 14 14 13 12 11 10 9 8 7 6 6 5 5 5 5 5 5 5 5 5 4 4 4 5 6 7 8 9 10 11 11 12 13 14 15 15 15 16 16 17 17 18 19 19 20 20 21 21 21 21 21 21 21 22 22 22 22 22 22 22 22 22 22
14 15 16 16 15 15 15 15 14 13 12 11 10 9 8 7 7 7 6 6 6 6 6 6 6 6 5 5 6 7 8 9 10 10 11 12 13 13 14 14 15 15 16 17 17 18 19 19 19 20 20 20 21 21 21 21 21 21 21 21 22 22 23 23 23 23 23 23 23
15 16 16 16 17 17 17 16 15 14 13 12 11 10 9 9 8 8 7 8 8 8 9 9 8 7 6 7 9 10 11 11 11 12 12 13 14 14 14 14 15 16 17 18 19 19 20 20 20 20 20 20 21 21 21 21 21 21 22 22 22 22 23 23 23 23 23 23 23
16 16 17 17 18 18 18 17 17 16 14 13 12 11 10 10 9 9 9 9 10 10 9 9 8 8 9 11 13 14 13 13 12 13 13 14 14 14 14 15 16 17 18 19 20 20 20 21 20 20 20 20 21 21 21 22 22 22 22 22 22 23 23 23 23 23 23 23 24
16 17 17 18 19 19 19 18 17 16 15 14 13 12 11 11 10 10 10 10 11 10 9 8 9 12 14 16 16 15 13 13 13 13 13 13 13 14 15 16 17 18 18 19 20 20 20 20 20 20 21 21 21 22 22 22 22 22 23 23 23 23 23 23 23 23 23 23 24
17 18 18 19 19 20 20 19 18 17 15 14 13 13 12 11 11 10 11 11 11 10 10 11 13 16 17 17 15 14 13 13 13 13 13 13 14 15 16 16 17 18 18 19 19 20 20 20 21 21 21 21 22 22 22 22 23 23 23 23 23 23 23 23 23 23 23 22 23
18 18 19 19 20 20 20 19 17 16 15 14 13 12 11 11 11 11 11 11 11 11 12 14 17 17 17 15 14 13 13 13 13 12 13 13 14 15 16 16 17 17 18 18 19 19 20 20 21 21 21 22 22 22 23 23 23 22 22 22 22 22 22 22 22 22 22 22 21
18 18 19 19 19 19 19 18 16 14 13 12 11 11 10 11 11 12 12 13 13 14 16 17 18 16 15 13 13 13 13 12 12 12 13 14 14 15 15 16 16 17 17 18 19 19 20 21 21 21 21 22 22 22 22 22 22 22 22 22 22 22 21 21 21 21 21 21 21
18 17 17 17 17 17 16 14 13 12 11 10 10 10 11 12 14 14 15 15 16 17 18 17 16 14 12 12 12 12 11 11 11 12 13 13 14 15 15 16 16 17 17 18 18 19 20 21 21 21 21 21 21 21 21 21 21 21 21 21 21 21 21 21 21 21 21 21 21
16 14 14 13 13 12 11 11 10 9 9 10 11 12 13 14 15 16 16 16 17 16 15 14 12 11 11 10 10 10 10 10 11 12 12 13 14 14 15 15 16 16 17 17 18 19 20 20 21 21 21 21 21 21 20 20 20 20 20 21 21 21 21 21 21 22 22 23 23
12 11 10 10 9 9 9 9 10 10 11 12 13 13 14 14 14 15 14 14 14 13 11 10 10 9 9 9 8 8 9 10 11 12 12 13 14 15 15 16 16 17 17 18 18 19 19 20 20 20 20 20 20 20 20 19 19 19 20 20 20 21 21 22 23 23 24 25 26
9 9 9 9 9 10 10 11 12 13 13 14 14 14 13 13 12 12 12 11 11 10 10 9 9 8 7 7 7 7 9 10 11 12 13 13 14 15 16 17 17 17 18 18 19 19 19 19 19 20 20 20 19 19 19 19 19 19 19 19 20 21 22 24 25 26 26 27 27
9 9 10 10 11 11 12 13 13 14 14 14 14 13 12 11 11 10 10 11 11 10 9 8 7 6 5 5 7 8 9 10 11 12 13 14 15 15 16 17 18 18 19 19 19 19 19 19 19 19 19 19 18 18 18 18 18 19 19 20 21 22 23 25 26 27 28 28 28
10 10 11 11 12 13 13 14 14 15 15 14 14 13 12 11 11 12 12 12 11 9 7 6 4 4 5 7 8 9 10 11 12 12 13 14 15 16 17 18 18 19 19 19 19 19 19 19 19 18 18 17 17 17 17 18 18 19 20 21 22 23 24 25 26 27 28 29 29
11 11 12 12 13 14 14 15 15 15 15 14 13 13 12 13 14 14 13 12 9 7 5 3 4 6 8 9 10 11 12 12 12 13 13 14 15 16 17 18 18 19 19 19 19 19 19 18 18 17 16 16 16 16 17 18 19 20 21 22 23 24 25 26 26 27 28 29 29
11 12 12 13 14 15 15 15 15 15 15 14 14 14 15 16 15 13 11 8 6 4 3 5 7 10 11 12 12 13 14 14 14 14 14 15 15 16 17 18 18 18 18 18 18 18 18 17 17 16 15 14 15 16 17 18 20 21 22 23 24 25 25 26 27 27 27 27 27
12 12 13 13 14 14 15 15 15 15 15 15 16 17 17 15 11 8 6 5 3 3 6 9 12 13 13 14 14 15 15 15 15 15 15 15 16 16 17 17 18 18 18 18 18 17 17 16 15 15 14 15 15 17 18 20 21 22 23 24 25 26 26 26 25 25 25 26 26
11 12 12 13 14 14 14 14 15 16 16 17 17 16 14 10 7 6 5 4 5 7 10 13 15 16 16 16 16 16 16 15 15 14 14 15 16 16 17 17 18 18 17 17 17 16 15 15 14 15 15 16 17 18 20 21 22 23 24 24 25 25 24 24 24 24 24 25 25
11 12 12 13 13 14 14 15 16 16 16 15 14 12 9 7 6 6 5 6 9 12 15 16 17 17 18 17 17 16 15 14 14 14 14 15 16 17 17 17 17 17 17 16 15 15 15 15 15 15 16 17 18 20 21 22 23 23 24 24 24 23 23 23 23 24 24 25 26
12 13 13 14 14 15 15 15 14 13 11 10 8 7 6 6 5 5 7 10 13 16 17 18 18 17 17 16 15 14 13 13 14 14 15 15 16 16 17 17 17 16 15 15 15 15 15 15 16 17 18 19 20 21 22 22 23 23 23 23 23 22 22 22 23 24 25 26 26
14 15 15 15 15 14 12 11 9 8 6 5 4 4 4 4 6 8 11 14 16 17 17 17 17 16 14 13 13 13 13 14 14 14 15 15 15 16 16 16 16 15 15 14 15 15 16 16 17 18 19 20 21 21 22 22 22 23 23 22 22 21 21 22 23 24 25 25 24
16 16 15 14 11 9 6 5 4 3 2 2 2 3 4 7 9 12 15 16 17 17 16 15 14 13 12 12 12 13 13 14 14 14 14 15 15 15 15 15 15 15 14 14 15 16 16 17 18 18 19 20 21 21 21 22 22 22 22 22 21 21 21 21 22 23 22 21 18
14 13 10 7 5 3 2 2 2 1 2 3 4 6 9 11 13 15 16 16 16 15 14 13 12 12 12 12 12 12 13 13 14 14 14 14 14 15 15 15 15 14 15 15 16 16 17 18 18 19 19 20 20 21 21 21 22 22 21 21 21 21 20 20 21 21 20 19 18
8 6 4 3 3 3 3 3 2 3 4 6 8 10 12 13 14 14 14 13 13 12 12 11 11 11 11 11 12 12 13 13 14 14 14 14 14 14 14 14 14 15 15 16 16 17 18 18 18 19 19 20 20 21 21 21 21 21 21 20 20 20 20 19 20 20 21 22 24
3 3 3 3 4 4 4 4 5 6 8 10 11 12 13 13 12 12 11 10 10 10 10 10 10 11 11 12 13 13 13 13 13 13 13 13 13 13 14 14 15 15 16 16 17 18 18 18 19 19 19 19 20 21 21 21 21 21 20 20 20 21 21 21 22 23 24 26 26
2 3 3 3 4 5 6 7 8 10 11 12 12 11 11 10 9 9 8 8 8 8 9 10 10 11 12 12 13 13 13 12 12 12 12 12 12 13 14 14 15 16 17 17 17 18 19 19 19 19 19 19 20 21 21 21 21 21 21 21 22 23 24 25 25 25 25 25 25
2 1 2 4 6 8 9 9 10 10 11 10 10 9 8 7 7 7 7 7 7 8 9 10 11 11 12 12 13 13 12 12 11 11 11 12 13 13 14 15 16 17 17 18 18 19 19 19 19 19 19 20 20 21 22 22 22 22 22 22 23 24 25 25 24 23 23 23 24
1 4 6 7 8 9 9 9 9 9 9 8 8 7 6 6 5 6 6 7 8 9 10 10 11 11 12 12 12 12 12 11 11 11 12 12 13 14 15 15 17 18 18 18 18 19 19 20 19 19 19 20 21 21 22 22 22 22 22 22 23 23 22 22 22 21 22 23 24
Wind_Direction
305 306 307 309 309 312 316 321 323 325 329 337 10 37 57 93 116 131 138 142 145 146 148 152 156 159 164 173 190 217 247 266 276 282 287 292 294 294 292 291 289 289 291 294 297 300 303 305 305 305 302 298 295 295 295 297 300 302 304 305 306 308 308 308 308 308 308 307 307
302 302 303 304 304 306 310 312 312 313 318 331 358 88 131 142 148 148 148 148 152 156 162 169 179 188 200 215 230 244 256 265 272 278 283 285 285 285 284 285 287 291 296 300 303 305 305 304 300 297 295 294 292 292 292 292 294 297 300 303 306 308 308 308 308 308 308 307 307
298 298 298 297 296 297 301 303 298 286 276 276 254 223 194 180 178 171 164 161 164 169 176 186 197 208 221 234 244 252 259 266 273 278 282 284 286 287 290 294 301 307 310 311 307 303 299 297 294 292 291 290 289 289 289 289 291 295 299 303 306 307 308 308 308 308 308 307 306
293 292 291 287 285 287 289 289 279 272 268 256 246 230 209 196 193 191 184 176 176 179 186 195 208 224 239 250 258 263 267 272 277 284 292 297 301 307 311 313 315 313 308 301 296 292 290 289 288 287 286 286 285 286 287 290 293 297 300 303 305 306 306 307 307 308 307 305 304
287 285 280 276 278 280 280 276 268 262 257 247 240 226 212 203 200 194 186 182 183 187 194 206 226 248 261 266 272 276 279 283 285 292 301 309 318 321 318 313 307 299 293 288 286 285 284 284 283 282 282 282 283 286 290 294 297 299 301 302 304 304 305 305 306 307 306 305 304
281 276 269 265 269 273 273 269 262 256 250 241 234 221 208 202 197 193 188 186 188 197 211 232 259 276 283 286 288 289 290 292 294 300 308 314 312 308 304 299 294 289 285 282 280 280 280 280 280 281 283 286 290 293 296 298 300 301 301 302 302 303 304 304 305 306 305 304 304
277 271 265 263 265 267 265 260 255 248 240 232 225 213 201 195 194 192 192 195 199 215 243 268 291 301 306 306 304 298 293 292 294 296 297 298 297 295 293 290 287 283 281 280 279 280 281 284 287 289 293 296 297 298 299 300 301 301 301 301 302 303 303 304 304 305 304 304 304
274 269 266 265 264 262 258 254 248 240 232 222 214 206 200 197 197 200 208 217 232 258 281 293 300 299 298 299 297 291 287 287 290 292 294 296 296 294 291 289 286 284 283 284 286 289 292 295 297 299 300 299 299 300 301 301 301 301 301 301 302 303 303 304 304 304 304 304 303
270 267 266 263 261 258 254 250 244 236 226 216 211 211 213 215 220 231 245 263 283 296 302 303 296 290 287 286 287 288 290 292 295 296 299 300 299 296 293 291 291 291 293 296 300 304 305 305 304 303 302 302 301 302 303 303 302 302 302 302 303 303 303 303 304 304 304 303 303
270 267 265 261 258 255 250 245 240 232 224 219 220 223 229 235 245 257 271 285 298 305 306 300 291 284 281 282 284 288 291 293 295 295 295 296 294 294 294 295 298 301 305 309 312 313 312 310 307 306 305 304 304 304 304 304 304 303 303 303 303 303 303 303 303 304 304 303 303
271 267 263 259 256 252 247 241 236 230 226 225 228 232 237 243 251 262 275 287 299 302 300 294 289 284 281 282 284 287 290 291 292 291 291 291 293 295 298 301 304 307 309 311 312 313 313 311 309 308 307 306 306 306 306 306 305 305 304 304 304 304 303 303 303 303 303 303 302
270 266 262 258 255 251 245 239 234 230 228 229 233 235 238 241 249 261 276 287 292 291 286 282 274 266 262 264 269 276 282 285 286 289 292 295 298 300 301 303 305 307 308 309 311 312 312 311 310 309 309 308 307 307 307 307 306 306 305 305 304 304 303 303 303 303 302 301 300
269 266 262 257 255 250 243 236 232 230 230 231 233 233 235 237 245 256 265 267 268 263 257 253 240 231 231 240 252 266 276 283 288 293 296 299 300 301 302 303 305 307 308 309 310 311 311 311 310 310 309 308 308 308 308 307 307 306 305 305 304 303 302 302 303 302 301 299 297
272 268 263 257 253 247 240 235 232 231 231 231 230 230 230 232 237 243 247 247 248 240 227 222 220 222 231 247 262 274 282 288 292 294 295 296 298 299 300 302 303 305 307 308 309 310 310 310 310 310 310 309 309 308 308 308 307 306 305 304 303 302 302 301 301 300 299 297 295
276 271 265 258 251 245 240 236 233 232 231 229 228 226 225 225 229 235 240 242 240 235 229 224 225 231 242 259 273 281 285 287 288 290 291 292 294 295 297 299 301 304 306 308 310 311 311 311 311 311 311 311 311 310 310 309 308 307 305 304 302 301 301 301 300 299 298 296 295
280 274 267 259 252 246 242 238 236 234 232 227 225 224 224 226 231 238 244 247 247 245 242 236 237 244 259 274 283 285 285 283 283 285 287 288 289 291 294 298 303 307 309 311 312 312 312 312 313 313 313 313 312 312 311 310 309 308 306 304 303 302 301 301 300 299 298 296 294
283 277 270 262 254 248 243 240 238 235 232 228 226 227 229 232 236 241 245 249 250 248 244 243 250 267 281 287 287 284 281 279 280 282 284 285 288 292 297 302 307 310 312 313 313 313 313 313 314 314 315 314 314 313 312 311 310 309 307 306 304 303 302 302 301 300 298 297 295
286 280 273 265 256 249 244 241 238 235 232 230 229 230 232 235 238 243 249 253 252 249 250 259 274 285 289 289 285 280 276 276 279 281 283 287 292 298 303 307 310 311 313 313 314 314 314 315 315 316 316 315 315 314 313 312 311 309 308 307 305 304 303 302 302 300 299 298 296
289 282 275 266 258 251 246 242 239 236 233 231 230 231 233 236 241 246 249 250 249 251 262 276 285 288 287 284 279 274 273 277 281 284 288 293 299 303 307 310 311 312 313 314 315 315 315 316 316 316 316 315 314 313 312 311 310 309 308 307 306 305 304 303 302 301 299 298 297
290 283 275 267 259 251 245 240 237 233 231 229 228 230 233 238 243 246 247 247 249 259 273 282 285 283 280 274 270 271 275 281 286 290 295 300 305 309 312 313 313 314 314 315 315 315 315 315 315 315 314 314 313 312 311 310 309 308 307 306 304 303 303 302 300 299 298 296 295
292 284 275 267 257 249 242 236 232 228 225 226 228 233 239 245 249 251 253 256 263 272 278 280 279 275 270 267 269 275 281 287 292 298 304 308 312 314 315 315 315 315 315 315 315 315 314 314 313 313 313 312 311 310 309 308 307 306 305 304 302 301 301 299 298 297 295 294 293
291 282 271 262 252 244 236 229 224 223 226 233 241 249 256 260 261 262 264 268 273 276 277 276 272 267 265 268 274 281 286 292 299 306 311 314 315 316 316 316 316 315 315 314 314 314 314 313 312 312 311 310 309 309 308 306 305 304 302 301 300 299 298 296 295 294 293 293 292
286 275 263 252 243 235 227 224 226 234 245 256 264 268 271 271 271 271 273 275 276 276 274 270 267 265 268 274 280 286 292 299 306 310 313 314 316 316 317 317 316 315 315 315 315 315 314 313 312 311 310 309 308 307 306 305 303 302 300 299 298 296 295 294 293 293 293 293 294
280 266 254 245 238 233 234 240 250 259 268 274 277 279 279 279 278 278 278 277 277 275 272 268 268 270 274 278 283 292 301 308 311 312 312 313 316 318 319 319 318 317 317 317 317 316 315 314 312 311 310 308 307 305 304 303 301 299 298 297 296 295 294 294 294 294 295 296 296
276 265 257 253 251 253 257 262 267 273 278 282 285 286 286 285 284 282 281 279 277 275 274 273 273 273 274 280 291 302 310 313 314 314 314 315 318 320 321 320 320 319 319 319 318 316 314 312 311 310 308 307 305 304 302 301 299 297 296 296 296 297 297 297 297 297 298 298 297
281 275 271 269 269 270 272 274 278 281 285 287 288 288 288 286 285 282 279 277 277 278 278 276 272 271 280 296 309 315 317 316 315 315 316 317 318 320 320 320 320 319 319 318 316 314 312 310 309 308 307 306 304 302 300 298 297 296 296 297 299 300 301 301 300 300 299 298 297
285 282 280 280 279 279 280 282 284 286 287 287 287 286 285 284 280 278 277 278 280 279 275 269 271 290 313 324 326 325 322 319 318 317 317 317 317 318 318 318 318 317 316 316 314 312 311 309 308 308 306 304 302 300 298 297 297 298 300 301 302 302 302 301 300 299 299 298 296
287 285 284 284 283 283 284 285 285 285 285 285 285 284 283 280 278 278 279 280 277 271 266 277 310 329 335 335 333 330 327 324 322 321 319 318 317 317 316 316 315 314 314 314 313 312 311 310 309 308 306 303 301 299 300 300 302 303 304 304 304 303 301 300 299 298 297 296 295
289 287 285 283 283 284 284 284 284 284 285 285 284 282 279 278 280 281 281 275 265 266 299 329 336 337 337 336 334 332 330 328 326 324 323 321 319 317 315 314 313 313 314 314 313 312 311 311 309 307 305 303 302 303 304 305 306 307 306 305 304 302 300 299 298 296 296 295 295
288 286 284 282 282 282 283 284 284 284 283 281 279 278 279 281 284 281 271 258 267 311 330 334 335 334 333 334 333 332 330 328 327 325 323 320 317 314 313 313 314 315 315 314 313 313 312 312 310 308 306 306 307 307 308 308 308 308 306 304 303 301 300 299 298 297 296 295 295
284 282 281 280 280 281 282 282 281 279 278 277 279 281 284 285 277 264 255 266 303 320 326 329 331 330 328 329 329 329 327 326 324 322 319 315 312 312 313 314 315 315 315 315 314 314 313 312 311 310 310 310 311 310 310 309 308 307 305 303 302 301 300 299 298 297 296 294 293
279 278 277 277 277 278 278 277 276 276 278 281 285 287 284 272 260 256 269 293 311 319 324 326 328 327 326 326 326 324 322 319 317 315 313 312 312 313 314 315 316 316 316 316 316 315 314 313 313 313 313 313 312 311 310 309 308 306 304 302 301 301 300 299 298 297 295 294 292
275 274 273 273 273 274 274 275 278 282 285 287 287 279 264 256 256 274 294 308 316 320 322 322 322 322 322 321 320 317 315 313 313 313 314 314 315 315 315 316 316 317 318 318 317 316 315 315 315 314 314 313 312 311 310 309 307 305 304 302 302 301 300 300 298 298 297 295 293
269 268 269 270 273 275 279 283 288 291 290 281 268 257 258 272 289 302 310 314 317 317 316 316 316 316 316 315 313 311 312 314 315 316 316 316 315 316 316 317 318 318 319 318 317 316 316 316 316 315 315 314 313 312 310 309 307 305 304 304 303 302 301 301 301 300 299 296 294
267 269 272 276 280 285 291 295 294 286 270 258 264 280 293 301 306 310 313 314 314 313 312 311 311 311 311 311 312 314 316 317 317 317 317 317 316 316 317 318 319 319 319 319 318 318 318 318 317 317 316 315 313 312 310 309 307 307 306 305 304 303 302 303 303 302 300 297 297
273 276 280 284 287 287 281 268 249 242 256 278 291 296 300 303 306 308 309 310 310 310 309 310 311 311 313 315 317 318 318 318 318 318 317 317 317 318 319 320 321 321 321 321 320 320 320 319 319 318 317 315 313 312 310 309 309 308 307 306 304 302 302 302 302 301 299 300 305
282 284 281 266 249 238 230 229 235 257 277 285 290 294 298 302 304 306 308 310 310 310 311 313 315 316 317 318 319 319 319 319 318 318 318 318 319 320 321 322 322 323 323 323 322 322 321 321 320 319 318 315 313 312 312 311 310 309 307 305 303 302 301 300 299 298 298 301 305
285 267 246 231 228 230 238 250 261 271 279 285 290 294 299 303 306 309 312 314 315 315 316 316 317 317 318 319 320 320 320 319 319 319 319 320 321 323 324 324 324 325 325 324 324 323 323 322 321 319 318 316 314 313 313 312 310 309 307 305 303 302 300 298 296 295 296 298 301
228 225 228 237 252 265 273 278 280 283 287 292 297 301 306 309 312 315 317 318 318 317 317 317 318 319 320 321 321 322 322 321 320 321 322 324 325 326 327 327 327 326 326 325 324 324 323 322 321 319 318 316 315 314 314 312 310 309 307 306 304 302 300 297 295 294 294 296 298
200 234 285 298 301 301 300 298 298 299 301 305 308 312 314 316 317 317 317 317 317 317 318 320 321 321 322 323 324 325 324 323 323 324 325 328 329 330 330 329 328 327 326 325 325 324 323 322 321 319 318 316 316 315 314 313 311 310 308 306 304 302 299 297 295 294 294 296 298
335 330 326 323 320 318 316 315 314 313 312 312 314 315 315 315 316 317 318 320 321 322 322 323 324 326 326 327 327 327 325 324 325 327 329 331 333 333 332 331 329 327 326 325 324 324 323 322 321 319 318 317 316 316 315 315 312 310 307 305 303 300 298 297 298 298 298 299 299
Height
794 793 792 791 791 790 789 788 787 786 785 785 784 784 784 783 783 783 783 783 783 784 784 785 785 786 786 787 787 788 788 788 788 788 788 788 788 788 788 789 789 790 790 790 791 791 791 792 792 792 791 791 791 791 791 791 790 790 790 789 789 788 788 787 786 786 786 785 785
793 792 791 791 790 789 788 787 786 786 785 785 785 784 784 783 783 783 783 783 783 784 784 785 785 786 786 786 787 787 787 787 787 787 787 787 787 787 787 788 788 788 789 789 790 791 791 791 791 791 791 790 790 790 790 790 790 789 788 788 787 787 786 786 785 785 784 784 784
792 792 791 790 790 789 788 787 786 786 785 785 785 784 784 783 783 783 783 783 783 783 784 784 785 785 785 786 786 786 786 785 785 785 785 785 786 786 786 786 787 787 788 789 790 791 791 791 791 790 790 790 789 789 789 789 788 788 787 786 786 786 785 785 784 784 783 783 782
792 791 790 790 789 789 788 787 786 786 786 785 784 784 783 783 783 782 782 782 783 783 784 784 784 785 785 785 785 785 784 784 784 784 784 784 785 785 785 786 786 787 788 789 790 790 790 790 790 789 789 788 788 788 787 787 787 786 786 785 785 784 784 783 783 782 782 781 781
791 790 790 789 789 788 787 787 786 786 785 785 784 784 783 783 783 782 782 782 783 783 783 784 784 785 785 785 784 784 783 783 783 784 784 784 784 785 785 785 786 786 787 788 788 789 789 788 788 788 787 787 786 786 786 786 785 785 784 784 783 783 782 782 781 781 781 780 780
790 790 789 789 788 788 787 786 786 786 785 784 784 784 783 783 782 782 782 782 782 782 783 784 784 785 785 784 784 784 783 783 783 783 784 784 784 785 785 785 786 786 786 787 787 787 787 786 786 786 785 785 785 785 785 784 784 783 783 782 782 781 781 780 780 779 779 779 778
789 789 788 788 788 787 787 786 786 785 785 784 784 784 783 783 782 782 782 781 782 782 782 782 783 784 784 784 784 784 783 783 783 783 784 784 784 784 784 784 785 785 785 786 786 786 785 785 785 784 784 784 784 783 783 783 782 782 781 781 780 780 779 779 778 778 778 777 777
788 788 788 787 787 786 786 786 785 785 785 784 784 784 783 783 783 782 782 782 781 781 781 781 782 782 783 783 783 783 783 783 783 783 784 784 784 784 784 784 784 784 784 784 784 784 784 784 784 783 783 783 782 782 782 781 781 780 780 779 779 778 778 777 777 777 776 776 776
788 787 787 786 786 786 786 785 785 785 784 784 784 783 783 783 783 782 782 782 782 781 781 781 781 782 782 783 783 783 783 783 783 783 783 783 783 783 783 783 783 783 783 784 783 783 783 783 782 782 782 781 781 781 781 780 780 779 778 777 777 776 776 776 776 775 775 774 774
787 786 786 786 785 785 785 785 784 784 783 783 783 783 782 782 782 782 782 782 782 781 781 781 781 782 782 782 782 782 782 782 782 782 782 782 782 782 782 782 782 782 782 782 782 782 781 781 781 781 781 780 780 780 779 779 778 777 776 776 776 775 775 774 774 774 773 773 772
786 785 785 785 785 784 784 784 783 783 782 782 782 782 782 782 782 781 781 781 781 781 781 781 781 781 782 782 782 782 782 782 782 781 781 781 781 781 782 781 781 781 781 781 781 781 781 780 780 780 779 779 779 778 778 777 776 776 775 775 774 773 773 773 772 772 771 771 771
785 784 784 784 784 783 783 783 782 782 781 781 781 781 781 781 781 781 781 781 781 781 781 781 781 781 781 781 781 781 781 781 781 781 781 781 781 781 781 781 781 780 780 780 780 780 779 779 779 778 778 777 777 777 776 776 775 774 774 773 772 772 771 771 771 771 770 770 769
784 783 783 783 782 782 782 781 781 781 781 781 781 780 780 780 780 780 780 780 780 780 780 780 781 781 781 781 781 781 781 781 780 780 780 780 780 780 780 780 779 779 779 779 779 778 778 778 777 777 776 776 776 775 775 774 773 773 772 771 771 770 770 769 769 769 768 768 767
783 782 782 781 781 781 781 781 780 780 780 780 780 779 779 779 779 779 779 779 779 779 780 780 780 780 780 780 780 780 780 780 780 780 779 779 779 779 779 778 778 778 778 778 777 777 777 776 776 776 775 774 774 773 773 773 772 771 771 770 769 769 768 768 767 767 767 766 766
782 781 781 781 780 780 780 780 779 779 779 779 779 778 778 778 778 778 778 779 779 779 779 779 779 779 779 779 779 779 779 779 779 779 778 778 778 778 777 777 777 777 776 776 776 776 776 775 775 774 773 773 772 772 771 771 770 770 769 768 768 767 766 766 766 765 765 764 764
781 781 780 780 780 779 779 778 778 778 778 778 777 777 777 777 777 777 778 778 778 778 778 778 778 778 779 779 779 778 778 778 778 778 777 777 777 776 776 776 776 776 775 775 775 774 774 774 773 772 772 771 771 770 770 769 768 768 767 767 766 765 765 764 764 763 763 763 762
780 780 779 779 778 778 777 777 777 777 777 776 776 776 777 776 776 776 777 777 777 777 777 778 778 778 778 778 778 777 777 777 777 776 776 776 776 775 775 775 774 774 774 773 773 773 772 772 771 771 770 770 769 768 768 767 767 766 766 765 764 764 763 763 762 762 761 761 761
779 778 778 778 777 777 776 776 776 776 776 776 776 776 776 776 776 776 776 776 776 776 776 777 777 777 776 776 776 776 776 776 776 776 775 775 774 774 774 773 773 773 772 772 771 771 771 770 770 769 769 768 767 767 766 766 765 764 764 763 763 762 761 761 761 760 760 759 759
778 777 777 776 776 776 775 775 775 775 775 775 775 775 775 775 775 775 775 775 775 776 776 775 775 775 775 775 775 775 775 775 775 774 774 774 773 773 772 772 771 771 771 771 770 770 769 769 768 767 767 766 766 765 765 764 763 763 762 761 761 761 760 760 759 759 758 758 757
776 776 776 775 775 775 775 775 775 775 775 775 774 774 774 774 774 774 774 774 774 774 774 774 774 774 774 774 774 774 774 774 773 773 773 772 772 771 771 771 770 770 769 769 768 768 767 767 766 766 765 765 764 763 763 762 762 761 761 760 759 759 758 758 757 757 756 756 756
776 775 774 774 774 774 774 774 774 774 774 774 774 774 774 773 773 773 773 773 773 773 773 773 772 772 772 772 772 772 772 772 772 772 772 771 771 771 770 769 769 768 768 767 767 767 766 766 765 765 764 763 762 762 761 761 760 759 759 758 758 757 757 756 756 756 755 755 754
774 774 773 773 773 773 774 774 774 774 774 774 774 774 773 773 773 773 773 773 772 772 771 771 771 771 771 771 771 771 771 771 771 771 771 770 770 769 769 768 767 767 766 766 766 765 765 764 764 763 762 762 761 760 760 759 758 758 757 756 756 756 755 755 754 754 753 753 752
773 773 773 772 773 773 773 774 774 774 774 773 773 773 773 772 772 772 772 771 771 771 770 770 770 770 770 770 770 770 770 770 770 770 769 769 768 768 767 767 766 766 765 765 764 764 763 763 762 761 761 760 759 759 758 757 757 756 756 755 754 754 753 753 753 752 752 751 751
773 772 772 773 773 773 773 774 773 773 773 773 772 772 772 771 771 771 771 770 770 769 769 769 769 769 769 769 769 769 769 769 768 768 768 767 767 766 766 766 765 765 764 763 763 762 762 761 761 760 759 758 758 757 756 756 755 755 754 753 753 752 751 751 751 750 750 749 749
773 772 772 773 773 773 773 773 773 772 772 772 771 771 771 770 770 770 769 769 769 769 768 768 768 768 768 768 768 768 768 767 767 767 766 766 766 765 765 764 764 763 762 762 761 761 761 760 759 758 757 757 756 756 755 754 754 753 753 752 751 751 750 749 749 748 748 747 747
772 772 772 772 772 772 772 772 772 771 771 771 770 770 770 769 769 769 769 768 768 768 768 767 767 767 767 767 767 767 767 766 766 766 765 765 764 764 764 763 762 762 761 761 760 760 759 759 758 757 756 755 755 754 753 753 752 752 751 751 750 749 748 747 746 746 746 745 744
772 772 772 771 771 771 771 771 771 771 770 770 769 769 769 769 768 768 768 768 767 767 766 766 766 766 766 766 766 766 766 766 765 765 764 764 763 763 762 762 761 761 760 760 759 758 758 757 756 756 755 754 753 753 752 751 751 750 750 749 748 748 747 746 745 744 743 742 742
771 771 771 771 771 771 771 770 770 770 769 769 769 769 768 768 768 768 767 767 766 766 766 766 766 766 766 766 766 765 765 765 764 764 763 763 762 761 761 761 760 760 759 758 757 757 756 755 755 754 753 753 752 751 751 750 749 749 748 747 746 746 745 744 743 742 741 740 739
770 770 770 770 770 770 770 769 769 769 768 768 768 768 768 767 767 767 767 766 766 766 766 766 766 765 765 765 764 764 764 763 763 762 762 761 761 760 760 759 759 758 757 757 756 755 754 754 753 753 752 751 751 750 749 749 748 747 746 746 745 744 743 742 741 740 739 738 737
769 769 769 769 769 769 768 768 768 768 768 767 767 767 766 766 766 766 766 766 766 766 766 765 765 764 764 764 763 763 762 762 761 761 761 760 759 759 758 758 757 756 756 755 754 754 753 752 752 751 751 750 750 749 748 747 746 746 745 744 743 742 741 740 739 738 737 736 735
768 768 768 768 768 767 767 767 767 767 766 766 766 766 766 766 766 766 766 766 765 765 765 764 764 763 763 762 762 762 761 761 760 760 759 759 758 758 757 756 756 755 754 754 753 752 752 751 751 750 749 749 748 747 747 746 745 744 743 742 741 740 739 738 737 736 735 734 733
767 767 767 766 766 766 766 766 766 765 765 765 764 765 765 765 765 765 765 765 765 764 764 763 763 762 762 761 761 761 760 760 759 759 758 758 757 756 756 755 755 754 753 752 752 751 751 750 749 749 748 747 747 746 745 744 743 742 741 740 739 738 737 736 736 734 733 733 732
766 766 766 765 765 765 765 764 764 764 764 764 764 764 764 764 764 764 764 764 764 763 763 762 762 761 761 761 760 759 759 758 758 757 757 756 756 755 755 754 753 753 752 751 751 750 749 749 748 747 747 746 746 745 744 743 742 741 739 738 737 736 736 735 734 733 732 731 730
765 765 764 764 764 763 763 763 763 763 763 763 763 763 763 763 763 763 763 763 763 762 762 761 761 761 760 759 759 758 758 757 757 756 756 755 755 754 753 753 752 751 751 750 750 749 748 748 747 746 746 745 744 743 742 741 740 739 738 736 736 735 734 733 732 731 730 730 729
763 763 763 763 763 762 762 762 763 763 763 763 763 763 762 762 762 762 762 762 762 761 761 760 760 759 759 758 758 757 757 756 756 755 755 754 753 753 752 751 751 751 750 749 748 748 747 746 746 745 744 743 742 741 741 739 738 737 736 735 734 733 732 732 731 730 729 728 727
762 762 762 762 762 762 762 762 762 762 762 762 762 762 762 761 761 761 761 761 761 760 760 759 759 758 758 757 757 756 756 755 755 754 754 753 752 752 751 751 750 749 749 748 747 747 746 745 745 744 743 742 741 740 739 738 737 736 735 733 732 731 731 730 729 729 728 727 726
761 761 761 761 761 761 761 761 761 761 761 761 761 761 761 761 760 760 760 760 760 759 759 758 758 757 757 756 756 756 755 754 754 753 752 752 751 751 750 749 749 748 748 747 746 746 745 744 744 743 742 741 740 739 737 736 735 734 733 732 731 730 729 729 728 727 726 725 724
760 761 761 761 761 761 761 761 761 761 761 761 760 760 760 759 759 759 759 759 758 758 758 757 757 756 756 756 755 754 754 753 753 752 751 751 750 750 749 748 748 747 747 746 745 745 744 743 742 741 741 740 738 737 736 735 734 733 732 731 730 729 728 727 726 725 724 723 723
760 760 761 761 761 761 761 760 760 760 760 760 760 759 758 758 758 757 757 757 757 757 757 756 756 756 755 754 754 753 753 752 752 751 751 750 749 749 748 747 747 746 746 745 744 743 743 742 741 740 740 738 737 736 735 734 733 731 731 730 728 727 726 725 724 723 722 721 721
760 760 761 761 761 761 761 761 760 760 760 760 759 758 757 757 756 756 756 756 756 756 756 756 755 755 754 753 753 752 752 751 751 750 750 749 748 748 747 746 746 745 744 744 743 742 741 741 740 739 738 737 736 735 734 733 731 730 729 728 727 725 724 723 722 721 720 719 718
760 760 761 761 761 761 761 760 760 760 760 759 758 757 757 756 756 756 756 756 756 755 755 754 754 753 753 752 751 751 751 750 750 749 749 748 747 747 746 745 745 744 743 743 742 741 740 740 739 738 737 736 735 734 733 731 730 729 728 726 725 724 722 721 720 719 718 717 716